Location: Buckeye Ditch
(40.9104°N, 122.9517°W)
Time: 07:47:13
(UTC+00:00)

SR - All Passes

Search period start: 11 April 2026 00:00
Search period end: 21 April 2026 00:00
Orbit: 570 x 850 km, 66.7° (Epoch: 11 April)

Date Brightness Start Highest point End Pass type
(mag) Time Alt. Az. Time Alt. Az. Time Alt. Az.
11 Apr - 00:41:34 10° WSW 00:45:29 28° NW 00:49:43 10° N daylight
11 Apr - 07:37:43 10° N 07:42:33 30° NE 07:47:33 10° ESE visible
11 Apr - 09:19:07 10° NW 09:24:26 46° WSW 09:29:53 10° S visible
11 Apr - 22:07:07 10° SE 22:09:13 13° ESE 22:11:23 10° ENE daylight
11 Apr - 23:45:45 10° SW 23:50:10 63° WNW 23:55:00 10° NNE daylight
12 Apr - 01:31:50 10° NW 01:32:58 11° NW 01:34:08 10° NNW daylight
12 Apr - 06:43:29 10° N 06:46:58 17° NE 06:50:31 10° E visible
12 Apr - 08:23:50 10° NNW 08:29:26 85° ENE 08:35:12 10° SSE visible
12 Apr - 10:07:36 10° WNW 10:10:28 14° WSW 10:13:20 10° SW visible
12 Apr - 22:50:50 10° S 22:55:08 53° ESE 22:59:49 10° NE daylight
13 Apr - 00:33:46 10° W 00:37:12 20° NW 00:40:50 10° N daylight
13 Apr - 07:28:57 10° NNW 07:34:12 42° NE 07:39:38 10° SE visible
13 Apr - 09:10:54 10° NW 09:15:47 31° WSW 09:20:46 10° S visible
13 Apr - 21:57:02 10° SSE 22:00:24 21° ESE 22:03:58 10° ENE daylight
13 Apr - 23:37:27 10° SW 23:41:42 41° NW 23:46:21 10° NNE daylight
14 Apr - 06:34:26 10° N 06:38:44 23° NE 06:43:10 10° E visible
14 Apr - 08:15:21 10° NW 08:20:54 67° WSW 08:26:36 10° SSE visible
14 Apr - 22:42:04 10° SSW 22:46:32 85° ESE 22:51:24 10° NNE daylight
15 Apr - 00:26:20 10° WNW 00:28:58 15° NW 00:31:44 10° N daylight
15 Apr - 05:40:37 10° NNE 05:43:00 13° NE 05:45:25 10° ENE visible
15 Apr - 07:20:16 10° NNW 07:25:46 60° ENE 07:31:28 10° SE visible
15 Apr - 09:02:57 10° WNW 09:07:05 21° WSW 09:11:16 10° SSW visible
15 Apr - 21:47:37 10° S 21:51:38 34° ESE 21:55:57 10° NE daylight
15 Apr - 23:29:23 10° WSW 23:33:20 28° NW 23:37:35 10° N daylight
16 Apr - 06:25:32 10° NNW 06:30:26 31° NE 06:35:29 10° ESE visible
16 Apr - 08:06:58 10° NW 08:12:18 45° WSW 08:17:44 10° S visible
16 Apr - 20:54:44 10° SE 20:57:01 14° ESE 20:59:23 10° ENE daylight
16 Apr - 22:33:31 10° SW 22:37:59 61° WNW 22:42:51 10° NNE daylight
17 Apr - 00:19:40 10° NW 00:20:49 11° NW 00:22:00 10° NNW daylight
17 Apr - 05:31:15 10° N 05:34:50 17° NE 05:38:29 10° E visible
17 Apr - 07:11:40 10° NNW 07:17:17 87° ENE 07:23:04 10° SSE visible
17 Apr - 08:55:32 10° WNW 08:58:18 14° WSW 09:01:04 10° SW visible
17 Apr - 21:38:34 10° SSW 21:42:56 55° ESE 21:47:41 10° NE daylight
17 Apr - 23:21:34 10° W 23:25:01 20° NW 23:28:41 10° N daylight
18 Apr - 06:16:45 10° NNW 06:22:04 43° NE 06:27:31 10° SE visible
18 Apr - 07:58:45 10° NW 08:03:37 30° WSW 08:08:34 10° S visible
18 Apr - 20:44:42 10° SSE 20:48:10 22° ESE 20:51:51 10° ENE daylight
18 Apr - 22:25:13 10° WSW 22:29:30 40° NW 22:34:11 10° NNE daylight
19 Apr - 05:22:11 10° N 05:26:34 23° NE 05:31:04 10° E visible
19 Apr - 07:03:10 10° NW 07:08:44 65° WSW 07:14:25 10° SSE visible
19 Apr - 21:29:47 10° SSW 21:34:18 88° ESE 21:39:14 10° NNE daylight
19 Apr - 23:14:07 10° WNW 23:16:47 15° NW 23:19:33 10° N daylight
20 Apr - 04:28:17 10° N 04:30:50 13° NE 04:33:23 10° ENE visible
20 Apr - 06:08:02 10° NNW 06:13:37 62° ENE 06:19:18 10° SE visible
20 Apr - 07:50:47 10° WNW 07:54:53 21° WSW 07:59:01 10° SSW visible
20 Apr - 20:35:18 10° S 20:39:23 35° ESE 20:43:48 10° NE daylight
20 Apr - 22:17:07 10° WSW 22:21:06 28° NW 22:25:23 10° N daylight
